• In Netherlands
  • List of Countries
  • For 7 days
  • Water Temperature
  • Satellite Maps
  • Weather Map
  • Weather Widgets
  • user-avatar
    Login

    Hourly Weather Kingston

    Today, 19 January, Friday

    Time Temperature Precipitation Wind Pressure Humidity
    00:00 +20°C° 0.2 mm 4 mps 708 mmHg 88%
    01:00 +20°C° 0.2 mm 5 mps 708 mmHg 89%
    02:00 +20°C° 0.3 mm 4 mps 707 mmHg 89%
    03:00 +20°C° 0.3 mm 4 mps 707 mmHg 89%
    04:00 +20°C° 0.3 mm 4 mps 707 mmHg 90%
    05:00 +20°C° 0.3 mm 4 mps 707 mmHg 90%
    06:00 +20°C° 0.3 mm 4 mps 707 mmHg 90%
    07:00 +20°C° 0.3 mm 4 mps 707 mmHg 90%
    08:00 +21°C° 0.2 mm 4 mps 708 mmHg 86%
    09:00 +22°C° 0.2 mm 5 mps 708 mmHg 82%
    10:00 +23°C° 0.2 mm 5 mps 709 mmHg 78%
    11:00 +25°C° 0.3 mm 5 mps 708 mmHg 76%
    12:00 +25°C° 0.3 mm 5 mps 708 mmHg 75%
    13:00 +26°C° 0.3 mm 5 mps 708 mmHg 73%
    14:00 +26°C° 0.7 mm 4 mps 707 mmHg 74%
    15:00 +25°C° 0.7 mm 4 mps 707 mmHg 76%
    16:00 +25°C° 0.7 mm 4 mps 707 mmHg 77%
    17:00 +23°C° 0.5 mm 4 mps 707 mmHg 82%
    18:00 +22°C° 0.5 mm 4 mps 707 mmHg 87%
    19:00 +21°C° 0.5 mm 4 mps 707 mmHg 91%
    20:00 +21°C° 0.4 mm 4 mps 707 mmHg 92%
    21:00 +20°C° 0.4 mm 4 mps 707 mmHg 93%
    22:00 +20°C° 0.4 mm 4 mps 708 mmHg 93%
    23:00 +20°C° 0.2 mm 4 mps 708 mmHg 93%

    Tomorrow, 20 January, Saturday

    Time Temperature Precipitation Wind Pressure Humidity
    00:00 +20°C° 0.2 mm 4 mps 707 mmHg 94%
    01:00 +20°C° 0.2 mm 4 mps 707 mmHg 94%
    02:00 +20°C° 0.3 mm 4 mps 707 mmHg 94%
    03:00 +20°C° 0.3 mm 4 mps 707 mmHg 94%
    04:00 +20°C° 0.3 mm 4 mps 706 mmHg 94%
    05:00 +20°C° 0.2 mm 4 mps 706 mmHg 94%
    06:00 +20°C° 0.2 mm 4 mps 707 mmHg 94%
    07:00 +20°C° 0.2 mm 4 mps 707 mmHg 95%
    08:00 +22°C° 0.1 mm 4 mps 708 mmHg 88%
    09:00 +23°C° 0.1 mm 4 mps 708 mmHg 82%
    10:00 +25°C° 0.1 mm 4 mps 709 mmHg 76%
    11:00 +26°C° 0.2 mm 4 mps 708 mmHg 73%
    12:00 +27°C° 0.2 mm 4 mps 708 mmHg 71%
    13:00 +27°C° 0.2 mm 4 mps 708 mmHg 68%
    14:00 +27°C° 0.3 mm 4 mps 707 mmHg 70%
    15:00 +26°C° 0.3 mm 4 mps 707 mmHg 72%
    16:00 +26°C° 0.3 mm 4 mps 706 mmHg 74%
    17:00 +23°C° 0.2 mm 4 mps 707 mmHg 79%
    18:00 +22°C° 0.2 mm 4 mps 707 mmHg 84%
    19:00 +21°C° 0.2 mm 4 mps 707 mmHg 90%
    20:00 +21°C° 0 mm 4 mps 707 mmHg 91%
    21:00 +20°C° 0 mm 4 mps 708 mmHg 92%
    22:00 +20°C° 0 mm 4 mps 708 mmHg 93%
    23:00 +20°C° 0 mm 4 mps 708 mmHg 93%

    Day after tomorrow, 21 January, Sunday

    Time Temperature Precipitation Wind Pressure Humidity
    00:00 +20°C° 0 mm 4 mps 707 mmHg 93%
    01:00 +20°C° 0 mm 4 mps 707 mmHg 94%
    02:00 +20°C° 0.1 mm 4 mps 707 mmHg 94%
    03:00 +20°C° 0.1 mm 4 mps 706 mmHg 94%
    04:00 +20°C° 0.1 mm 3 mps 706 mmHg 94%
    05:00 +20°C° 0.1 mm 3 mps 706 mmHg 94%
    06:00 +20°C° 0.1 mm 3 mps 706 mmHg 94%
    07:00 +20°C° 0.1 mm 3 mps 707 mmHg 94%
    08:00 +21°C° 0.2 mm 3 mps 707 mmHg 88%
    09:00 +23°C° 0.2 mm 4 mps 708 mmHg 81%
    10:00 +25°C° 0.2 mm 4 mps 708 mmHg 75%
    11:00 +26°C° 0.2 mm 4 mps 708 mmHg 73%
    12:00 +26°C° 0.2 mm 4 mps 707 mmHg 71%
    13:00 +27°C° 0.2 mm 4 mps 707 mmHg 69%
    14:00 +27°C° 0.1 mm 4 mps 706 mmHg 69%
    15:00 +26°C° 0.1 mm 4 mps 706 mmHg 69%
    16:00 +26°C° 0.1 mm 4 mps 705 mmHg 69%
    17:00 +25°C° 0.1 mm 4 mps 705 mmHg 75%
    18:00 +22°C° 0.1 mm 4 mps 706 mmHg 81%
    19:00 +21°C° 0.1 mm 4 mps 706 mmHg 87%
    20:00 +21°C° 0 mm 4 mps 706 mmHg 88%
    21:00 +21°C° 0 mm 4 mps 706 mmHg 89%
    22:00 +20°C° 0 mm 4 mps 707 mmHg 89%
    23:00 +20°C° 0 mm 4 mps 706 mmHg 90%

    22 January, Monday

    Time Temperature Precipitation Wind Pressure Humidity
    00:00 +20°C° 0 mm 4 mps 706 mmHg 91%
    01:00 +20°C° 0 mm 3 mps 706 mmHg 92%
    02:00 +20°C° 0 mm 3 mps 706 mmHg 93%
    03:00 +19°C° 0 mm 3 mps 705 mmHg 93%
    04:00 +19°C° 0 mm 3 mps 705 mmHg 94%
    05:00 +19°C° 0 mm 3 mps 705 mmHg 94%
    06:00 +19°C° 0 mm 3 mps 706 mmHg 94%
    07:00 +19°C° 0 mm 3 mps 706 mmHg 94%
    08:00 +21°C° 0 mm 3 mps 707 mmHg 85%
    09:00 +23°C° 0 mm 4 mps 707 mmHg 75%
    10:00 +26°C° 0 mm 4 mps 708 mmHg 66%
    11:00 +27°C° 0 mm 4 mps 708 mmHg 62%
    12:00 +28°C° 0 mm 4 mps 707 mmHg 59%
    13:00 +28°C° 0 mm 5 mps 707 mmHg 56%
    14:00 +28°C° 0 mm 5 mps 706 mmHg 57%
    15:00 +28°C° 0 mm 5 mps 706 mmHg 59%
    16:00 +27°C° 0 mm 5 mps 705 mmHg 61%
    17:00 +25°C° 0 mm 4 mps 705 mmHg 69%
    18:00 +23°C° 0 mm 4 mps 705 mmHg 77%
    19:00 +21°C° 0 mm 3 mps 706 mmHg 86%
    20:00 +20°C° 0 mm 3 mps 706 mmHg 87%
    21:00 +20°C° 0 mm 3 mps 706 mmHg 89%
    22:00 +20°C° 0 mm 3 mps 707 mmHg 90%
    23:00 +20°C° 0 mm 3 mps 706 mmHg 91%

    23 January, Tuesday

    Time Temperature Precipitation Wind Pressure Humidity
    00:00 +19°C° 0 mm 3 mps 706 mmHg 91%
    01:00 +19°C° 0 mm 3 mps 706 mmHg 92%
    02:00 +19°C° 0 mm 3 mps 705 mmHg 92%
    03:00 +19°C° 0 mm 3 mps 705 mmHg 93%
    04:00 +19°C° 0 mm 3 mps 705 mmHg 94%
    05:00 +19°C° 0 mm 3 mps 705 mmHg 94%
    06:00 +19°C° 0 mm 3 mps 706 mmHg 95%
    07:00 +19°C° 0 mm 3 mps 706 mmHg 95%
    08:00 +21°C° 0 mm 3 mps 707 mmHg 86%
    09:00 +24°C° 0 mm 3 mps 707 mmHg 76%
    10:00 +26°C° 0 mm 3 mps 708 mmHg 67%
    11:00 +27°C° 0 mm 3 mps 707 mmHg 62%
    12:00 +28°C° 0 mm 4 mps 707 mmHg 57%
    13:00 +29°C° 0 mm 4 mps 706 mmHg 52%
    14:00 +28°C° 0 mm 4 mps 706 mmHg 54%
    15:00 +28°C° 0 mm 4 mps 705 mmHg 56%
    16:00 +27°C° 0 mm 4 mps 705 mmHg 58%
    17:00 +25°C° 0 mm 3 mps 705 mmHg 67%
    18:00 +24°C° 0 mm 3 mps 705 mmHg 76%
    19:00 +21°C° 0 mm 3 mps 705 mmHg 85%
    20:00 +21°C° 0 mm 3 mps 706 mmHg 87%
    21:00 +20°C° 0 mm 3 mps 706 mmHg 89%
    22:00 +20°C° 0 mm 3 mps 706 mmHg 91%
    23:00 +20°C° 0.1 mm 3 mps 706 mmHg 93%

    24 January, Wednesday

    Time Temperature Precipitation Wind Pressure Humidity
    00:00 +20°C° 0.1 mm 3 mps 706 mmHg 94%
    01:00 +20°C° 0.1 mm 3 mps 706 mmHg 95%
    02:00 +20°C° 0.1 mm 3 mps 705 mmHg 95%
    03:00 +20°C° 0.1 mm 3 mps 705 mmHg 95%
    04:00 +20°C° 0.1 mm 3 mps 705 mmHg 96%
    05:00 +20°C° 0.4 mm 3 mps 705 mmHg 95%
    06:00 +20°C° 0.4 mm 3 mps 706 mmHg 95%
    07:00 +20°C° 0.4 mm 3 mps 706 mmHg 95%
    08:00 +21°C° 0.2 mm 3 mps 707 mmHg 87%
    09:00 +24°C° 0.2 mm 3 mps 707 mmHg 80%
    10:00 +26°C° 0.2 mm 3 mps 708 mmHg 72%
    11:00 +26°C° 0.2 mm 4 mps 707 mmHg 69%
    12:00 +27°C° 0.2 mm 4 mps 707 mmHg 66%
    13:00 +28°C° 0.2 mm 5 mps 706 mmHg 63%
    14:00 +27°C° 0.3 mm 5 mps 706 mmHg 66%
    15:00 +26°C° 0.3 mm 5 mps 706 mmHg 69%
    16:00 +26°C° 0.3 mm 5 mps 705 mmHg 71%
    17:00 +23°C° 0.2 mm 5 mps 705 mmHg 77%
    18:00 +22°C° 0.2 mm 4 mps 705 mmHg 83%
    19:00 +21°C° 0.2 mm 4 mps 706 mmHg 89%
    20:00 +21°C° 0 mm 4 mps 706 mmHg 89%
    21:00 +20°C° 0 mm 4 mps 706 mmHg 90%
    22:00 +20°C° 0 mm 3 mps 706 mmHg 91%
    23:00 +20°C° 0 mm 3 mps 706 mmHg 92%
    Show more